Location: B�rgermoos
(47.6500°N, 9.0667°E)
Time: 01:47:25
(UTC+00:00)

Tiros 1 - Pass Details

Date: 04 August 2021
Orbit: 630 x 663 km, 48.4° (Epoch: 16 September)

Event Time Altitude Azimuth Distance (km) Brightness Sun altitude
Rises 21:03:24 0° 286° (WNW) 2,975 11.4 -17.5°
Reaches altitude 10° 21:05:48 10° 282° (WNW) 2,057 10.4 -17.8°
Maximum altitude 21:10:25 54° 205° (SSW) 784 7.3 -18.2°
Enters shadow 21:11:49 39° 152° (SSE) 971 7.5 -18.4°
Drops below altitude 10° 21:14:59 10° 129° (SE) 2,028 - -18.7°
Sets 21:17:19 0° 124° (SE) 2,930 - -18.9°
